Погода в Ныробе

Россия / Пермский край     60°43′59″N   56°43′09″E
темп.,
°C
ветер,
м/с
пор.,
м/с
влажн.,
%
обл.,
%
осадки,
мм/ч
давл.,
гПа
погр.,
м
26 января, вт
вт2623:00+1ююз3699100 2.2 1017189
02:00+1юз3999100 1.1 1017285
05:00+1юз3999100 1.3 1017313
08:00+2зюз41199100 1.2 1017414
11:00+1зюз41199100 2.2 1018429
14:000юз51198100 0.2 1019496
17:00−1юз41098100 1.5 1019560
20:00−2юз4997100 1.3 1020526
27 января, ср
ср2723:00−4юз4996100 2.4 1020462
02:00−6юз3896100 0.6 1020347
05:00−7ююз2697100 0.8 1021199
08:00−7ю269698 0.3 1021246
11:00−6ю399699 0.8 1021371
14:00−4ююз4895100 0.4 1021592
17:00−5ю4994100 0.7 1020523
20:00−4ю51195100 0.2 1018645
28 января, чт
чт2823:00−3ю61393100 0.4 1015820
02:00−3ююз51396100 2.4 1013816
05:00−2ююз51197100 5.4 1012789
08:00−3ююз51196100 2.7 1010709
11:00−4ююз51295100 5.1 1010683
14:00−3юз51195100 1.2 1011742
17:00−2зюз4995100 1.6 1012731
20:00−2зюз3895100 0.1 1015534
29 января, пт
пт2923:00−4з269799 0.3 1016325
02:00−6юз2296100 0.1 101832
05:00−8ююз129799 0.1 102023
08:00−8юв1197100 0.1 102021
11:00−7в1195100 0.1 102234
14:00−5юв2495100 0.1 1022297
17:00−6в2296100 0.1 102225
20:00−8в389494 0.0 1023234
30 января, сб
сб3023:00−14в399396 0.2 1024211
02:00−18в3892100 0.0 1023235
05:00−22вюв399398 0.0 1023216
08:00−22вюв3793100 0.0 1023216
11:00−22вюв3794100 0.0 1022239
14:00−20вюв3797100 0.1 1022293
17:00−20вюв389696 0.4 1021283
20:00−20вюв389992 0.2 1021238